Location: Ch�tillon
(48.8024°N, 2.2935°E)
Time: 16:17:27
(UTC+00:00)

Cosmos 1697 Rocket - Pass Details

Date: 03 June 2022
Orbit: 833 x 843 km, 71.0° (Epoch: 29 June)

Event Time Altitude Azimuth Distance (km) Brightness Sun altitude
Rises 20:15:56 0° 248° (WSW) 3,395 6.2 -4.4°
Reaches altitude 10° 20:18:49 10° 262° (W) 2,463 5.7 -4.8°
Maximum altitude 20:23:25 25° 316° (NW) 1,649 5.5 -5.3°
Drops below altitude 10° 20:28:02 10° 11° (N) 2,470 5.6 -5.9°
Sets 20:30:57 0° 25° (NNE) 3,407 6.1 -6.2°
